[[{"header":{"parameterUnit":"m.s-1","parameterCategory":1,"la1":30.2991,"la2":30.254,"lo1":-89.0895,"lo2":-89.0444,"dy":0.0017,"dx":0.0017,"nx":28,"ny":28,"refTime":"2025-07-11T03:00:00:Z","depth":0,"parameterNumber":2,"parameterNumberName":"U-component_of_WINDS"},"data":[0,0,0,0,0,0,0,0,0,0,0,0,0,0,0,0,0,0,0,0,0,0,0,0,0,0,0,0,0,0,0,0,0,0,0,0,0,0,0,0,0,0,0,0,0,0,0,0,0,0,0,0,0,0,0,0,0,0,1.1089,1.1091,0,1.1254,1.1256,1.1258,1.1334,1.1334,1.1334,1.1334,1.1502,1.1507,1.1511,0,0,0,0,0,0,0,0,0,0,0,0,0,1.0837,1.0841,1.1089,1.1091,1.1093,1.1254,1.1256,1.1258,1.1334,1.1334,1.1334,1.1334,1.1501,1.1506,1.1512,0,0,0,0,0,0,0,0,0,0,0,0,0,1.0969,1.0843,1.1088,1.115,1.1157,1.1253,1.1256,1.1259,1.1334,1.1334,1.1334,1.1333,1.1499,1.1506,1.1513,1.1559,0,0,1.1534,1.1537,0,0,0,0,0,0,0,0,1.0961,1.0978,1.1139,1.1146,1.1154,1.1273,1.1229,1.1359,1.1334,1.1267,1.1334,1.1333,1.1426,1.1439,1.147,1.1567,1.1574,1.1534,1.1538,1.1541,1.1543,0,0,0,0,0,0,0,1.0952,1.0971,1.1154,1.1141,1.115,1.1169,1.1187,1.1254,1.1346,1.1273,1.1279,1.1297,1.143,1.1464,1.1475,1.1577,1.1534,1.154,1.1544,1.1547,1.1719,1.1719,0,0,0,0,0,0,1.0933,1.0963,1.1149,1.1159,1.1055,1.1174,1.1194,1.1235,1.1345,1.1362,1.1297,1.13,1.1452,1.1467,1.1481,1.1543,1.1541,1.1548,1.1552,1.1719,1.1719,1.172,0,0,0,0,0,0,1.0927,1.0949,1.1142,1.1063,1.1089,1.1178,1.1223,1.1239,1.1272,1.1364,1.138,1.1315,1.1452,1.1471,1.1539,1.155,1.1551,1.1557,1.1718,1.1719,1.1719,1.1667,0,0,0,0,0,0,1.092,1.0946,1.0965,1.1063,1.1093,1.1198,1.1224,1.1242,1.1284,1.1289,1.1384,1.14,1.1454,1.1528,1.1546,1.1559,1.1563,1.1718,1.1718,1.1719,1.1668,1.1665,1.1663,0,0,0,0,0,1.091,1.0944,1.0966,1.0988,1.1119,1.1198,1.1215,1.1277,1.1284,1.1304,1.1363,1.1397,1.1545,1.1535,1.1555,1.1571,1.1717,1.1718,1.1719,1.1669,1.1666,1.1663,0,0,0,0,0,0,1.0846,1.0958,1.0984,1.105,1.1114,1.1211,1.1238,1.1272,1.1335,1.1337,1.141,1.1431,1.1492,1.1538,1.1524,1.1621,1.1634,1.1639,1.1589,1.1587,1.1585,1.1573,1.1568,0,0,0,0,0,1.0839,1.0895,1.099,1.1039,1.107,1.1148,1.1185,1.1226,1.1296,1.1323,1.1387,1.1452,1.1514,1.1553,1.1615,1.1674,1.1696,1.1695,1.1693,1.169,1.1694,1.1729,1.1729,1.1723,1.1723,1.1723,0,0,1.0827,1.0895,1.0925,1.1028,1.1082,1.1138,1.117,1.1228,1.1269,1.1332,1.14,1.1448,1.1526,1.159,1.1621,1.163,1.17,1.1692,1.1689,1.1694,1.173,1.173,1.1731,1.1723,1.1723,1.1723,0,0,1.0832,1.0889,1.0936,1.099,1.1072,1.1123,1.1134,1.1226,1.1261,1.133,1.1377,1.1427,1.1532,1.1585,1.1626,1.1649,1.1683,1.1667,1.1656,1.1688,1.1689,1.169,1.1698,1.17,1.167,1.167,1.167,0,1.0806,1.0892,1.0956,1.1011,1.1054,1.1112,1.116,1.1209,1.1306,1.1335,1.1343,1.1475,1.1531,1.1608,1.1613,1.1644,1.1659,1.1657,1.1683,1.1685,1.1687,1.1695,1.1698,1.1668,1.1668,1.1668,1.1669,0,1.0855,1.0914,1.0942,1.1035,1.1081,1.1132,1.1203,1.1242,1.1278,1.1329,1.1397,1.1467,1.1543,1.1564,1.1601,1.1646,1.1649,1.1669,1.1684,1.1684,1.1693,1.1697,1.1664,1.1665,1.1666,1.1667,0,0,1.0827,1.0953,1.0962,1.1005,1.1098,1.1145,1.1197,1.1272,1.1304,1.1368,1.1414,1.15,1.1519,1.1566,1.1608,1.1637,1.165,1.1654,1.1657,1.1651,1.1704,1.1688,1.1691,1.1673,1.1674,1.1674,1.1697,0,1.0845,1.0943,1.1001,1.1075,1.113,1.1185,1.1231,1.1293,1.134,1.1393,1.1446,1.1506,1.1526,1.1554,1.1585,1.1642,1.1662,1.1641,1.1716,1.1718,1.1696,1.1696,1.168,1.1699,1.1701,1.1702,1.1703,0,1.088,1.0943,1.1023,1.1109,1.1134,1.1175,1.1247,1.1297,1.1368,1.14,1.1451,1.1494,1.1551,1.156,1.1639,1.1624,1.1657,1.169,1.1692,1.1702,1.1711,1.1707,1.1706,1.1709,1.1709,1.1708,1.1708,0,1.0851,1.0956,1.1017,1.1051,1.1154,1.1181,1.1225,1.1295,1.1336,1.1399,1.1426,1.1494,1.1532,1.1584,1.1644,1.1645,1.1717,1.1731,1.1746,1.1744,1.176,1.1758,1.1765,1.178,1.178,1.178,1.178,0,1.0866,1.0912,1.1005,1.1043,1.1096,1.1162,1.1212,1.126,1.1322,1.137,1.1421,1.1464,1.154,1.1593,1.164,1.1698,1.1715,1.1742,1.1755,1.1738,1.1735,1.1762,1.1763,1.178,1.178,1.178,1.178,0,1.0843,1.0907,1.0977,1.1068,1.1092,1.1127,1.1205,1.1243,1.1292,1.1351,1.1369,1.1447,1.1511,1.1576,1.1662,1.1694,1.1751,1.1767,1.1727,1.1734,1.1745,1.1743,1.1771,1.1777,1.1786,1.1786,1.1786,0,1.0849,1.0886,1.098,1.1016,1.1058,1.1115,1.1156,1.1222,1.1263,1.1346,1.1373,1.1441,1.1499,1.1599,1.1663,1.1729,1.1748,1.1752,1.1758,1.174,1.1748,1.1745,1.1749,1.175,1.175,1.175,1.1749,0,1.0852,1.0882,1.094,1.1009,1.1057,1.1114,1.1174,1.1199,1.1276,1.132,1.1386,1.143,1.1518,1.1585,1.1658,1.1703,1.1739,1.1747,1.1754,1.1738,1.1714,1.1727,1.1722,1.1746,1.1747,1.1747,1.1747,1.1747,1.0845,1.088,1.0951,1.1014,1.1065,1.1119,1.1159,1.1213,1.127,1.1346,1.1381,1.1447,1.1516,1.1618,1.1662,1.1715,1.1724,1.1734,1.1737,1.1739,1.1735,1.1704,1.1728,1.1728,1.1728,1.1729,1.1729,0,1.0851,1.0899,1.0956,1.1037,1.1086,1.1115,1.1182,1.1221,1.1278,1.1339,1.1395,1.147,1.1535,1.1603,1.1671,1.17,1.1718,1.1716,1.1715,1.1725,1.1722,1.171,1.17,1.17,1.17,1.17,1.17,1.17,1.086,1.092,1.0958,1.1044,1.1093,1.1158,1.1193,1.1243,1.1292,1.1374,1.1427,1.1471,1.1535,1.1608,1.1669,1.1687,1.171,1.1703,1.1726,1.1723,1.1725,1.1727,1.1715,1.1707,1.1707,1.1724,1.1724,1.1724]},{"header":{"parameterUnit":"m.s-1","parameterCategory":1,"la1":30.2991,"la2":30.254,"lo1":-89.0895,"lo2":-89.0444,"dy":0.0017,"dx":0.0017,"nx":28,"ny":28,"refTime":"2025-07-11T03:00:00:Z","depth":0,"parameterNumber":3,"parameterNumberName":"V-component_of_WINDS"},"data":[0,0,0,0,0,0,0,0,0,0,0,0,0,0,0,0,0,0,0,0,0,0,0,0,0,0,0,0,0,0,0,0,0,0,0,0,0,0,0,0,0,0,0,0,0,0,0,0,0,0,0,0,0,0,0,0,0,0,4.2536,4.2535,0,4.2459,4.2458,4.2457,4.2379,4.2378,4.2377,4.2376,4.2292,4.229,4.2289,0,0,0,0,0,0,0,0,0,0,0,0,0,4.2612,4.2611,4.2536,4.2535,4.2534,4.2459,4.2458,4.2457,4.2379,4.2378,4.2377,4.2376,4.2292,4.2291,4.2289,0,0,0,0,0,0,0,0,0,0,0,0,0,4.2561,4.2611,4.2536,4.2487,4.2482,4.2459,4.2458,4.2457,4.238,4.2378,4.2377,4.2375,4.2293,4.2291,4.2289,4.2308,0,0,4.2283,4.2282,0,0,0,0,0,0,0,0,4.2564,4.2558,4.2495,4.249,4.2484,4.2427,4.2454,4.2407,4.238,4.2418,4.2376,4.2374,4.2338,4.2332,4.2321,4.2304,4.23,4.2283,4.2281,4.2281,4.228,0,0,0,0,0,0,0,4.2568,4.2561,4.2505,4.2494,4.2488,4.2467,4.2458,4.2444,4.2387,4.2415,4.2409,4.2401,4.2334,4.2323,4.2318,4.2299,4.2283,4.2281,4.228,4.2279,4.2293,4.2294,0,0,0,0,0,0,4.258,4.2565,4.2508,4.2503,4.2521,4.2467,4.2457,4.2447,4.2387,4.2377,4.2403,4.2398,4.2327,4.232,4.2315,4.2333,4.2281,4.2279,4.2278,4.2291,4.2293,4.2295,0,0,0,0,0,0,4.2581,4.2575,4.2511,4.2532,4.2523,4.2467,4.2457,4.2446,4.2435,4.2378,4.2367,4.2402,4.2325,4.2318,4.231,4.2329,4.2278,4.2276,4.2289,4.2292,4.2294,4.2369,0,0,0,0,0,0,4.2584,4.2576,4.2584,4.2533,4.2522,4.251,4.2458,4.2446,4.2432,4.2425,4.2374,4.2364,4.2323,4.2314,4.2308,4.2325,4.2275,4.2287,4.229,4.2293,4.2364,4.2373,4.2381,0,0,0,0,0,4.2587,4.2607,4.2585,4.2579,4.2531,4.2511,4.2504,4.2459,4.2434,4.2441,4.2404,4.2366,4.2328,4.2314,4.2307,4.2323,4.2286,4.229,4.2293,4.2361,4.2372,4.2381,0,0,0,0,0,0,4.266,4.26,4.2574,4.2579,4.2551,4.2498,4.2505,4.2472,4.2448,4.2443,4.2385,4.2374,4.2374,4.2347,4.2333,4.2338,4.2301,4.2304,4.2355,4.2365,4.2373,4.2379,4.2273,0,0,0,0,0,4.2677,4.2668,4.2615,4.2624,4.2611,4.2561,4.2551,4.2518,4.2486,4.2473,4.2436,4.2405,4.2385,4.2374,4.2353,4.2361,4.2348,4.2368,4.2377,4.2384,4.2386,4.2387,4.2396,4.2306,4.2306,4.2306,0,0,4.2711,4.2677,4.2674,4.2638,4.2612,4.2602,4.2551,4.2543,4.2534,4.2471,4.2462,4.2434,4.2395,4.2396,4.2394,4.2374,4.2408,4.2388,4.2394,4.2393,4.2392,4.24,4.2408,4.2308,4.2308,4.2308,0,0,4.2769,4.2743,4.2747,4.2723,4.2686,4.2652,4.2653,4.2605,4.2585,4.2576,4.2528,4.2516,4.2485,4.2459,4.2442,4.249,4.2453,4.2485,4.2528,4.253,4.2537,4.2543,4.2559,4.2566,4.2487,4.2488,4.2488,0,4.2816,4.28,4.2753,4.2748,4.2733,4.2677,4.2681,4.2659,4.2616,4.2606,4.2585,4.2544,4.2514,4.2507,4.252,4.2508,4.2506,4.249,4.254,4.2545,4.255,4.2565,4.2572,4.2492,4.2491,4.2491,4.249,0,4.2859,4.285,4.2858,4.282,4.2805,4.2805,4.2756,4.2747,4.2716,4.2684,4.2675,4.2637,4.2608,4.2604,4.2572,4.2592,4.2581,4.2551,4.2513,4.2564,4.2577,4.2582,4.2497,4.2496,4.2495,4.2494,0,0,4.296,4.2897,4.2901,4.2883,4.2837,4.2828,4.2824,4.2797,4.279,4.2762,4.2757,4.2732,4.2704,4.2684,4.2649,4.2651,4.2691,4.262,4.2618,4.2634,4.271,4.2733,4.274,4.2667,4.2668,4.2669,4.2713,0,4.3009,4.3001,4.2959,4.2962,4.2952,4.2899,4.2895,4.2866,4.2837,4.2822,4.2788,4.2771,4.2736,4.2724,4.2723,4.2687,4.2706,4.2683,4.266,4.2659,4.2671,4.2747,4.2771,4.2814,4.2718,4.2718,4.2719,0,4.3065,4.3043,4.3046,4.3001,4.2995,4.2993,4.2965,4.2952,4.2918,4.2896,4.2875,4.2837,4.2828,4.2793,4.278,4.2765,4.2753,4.2734,4.2734,4.2729,4.2692,4.2743,4.2827,4.2833,4.2727,4.2726,4.2726,0,4.3137,4.3108,4.3106,4.3092,4.304,4.304,4.3017,4.2982,4.2968,4.2943,4.2934,4.2907,4.2892,4.2872,4.2827,4.2806,4.2818,4.278,4.2798,4.2799,4.2802,4.2802,4.2884,4.2796,4.2796,4.2796,4.2796,0,4.3196,4.32,4.3138,4.3136,4.3139,4.309,4.3093,4.3065,4.3034,4.3025,4.2977,4.2969,4.2911,4.2896,4.286,4.2854,4.2848,4.2828,4.2819,4.2832,4.2835,4.2823,4.2818,4.2798,4.2797,4.2797,4.2797,0,4.3276,4.3235,4.323,4.3181,4.3169,4.3173,4.3131,4.3126,4.3094,4.3084,4.3078,4.3027,4.3007,4.2961,4.2927,4.2903,4.2906,4.2889,4.2918,4.2912,4.2933,4.2931,4.3009,4.3016,4.2925,4.2926,4.2927,0,4.3316,4.3318,4.3271,4.3262,4.3243,4.323,4.3216,4.3168,4.3155,4.3117,4.3117,4.3094,4.3073,4.3043,4.3001,4.2976,4.2957,4.2986,4.2953,4.2966,4.2956,4.2957,4.2956,4.2993,4.2994,4.2996,4.2996,0,4.3391,4.3371,4.3354,4.3331,4.3317,4.3295,4.3271,4.3266,4.3212,4.32,4.318,4.3164,4.3131,4.3108,4.3076,4.3051,4.3014,4.3008,4.301,4.3024,4.304,4.3031,4.2937,4.3006,4.3005,4.3004,4.3003,4.3003,4.3452,4.3451,4.3418,4.3401,4.3378,4.3357,4.3351,4.3318,4.3302,4.3273,4.3245,4.3227,4.3192,4.3146,4.3123,4.3108,4.3089,4.3093,4.3094,4.3096,4.3102,4.3044,4.3102,4.3102,4.3101,4.3101,4.3101,0,4.3524,4.35,4.3485,4.3454,4.344,4.3409,4.338,4.3371,4.3357,4.3328,4.3309,4.3286,4.3263,4.3221,4.3194,4.319,4.3172,4.3184,4.3183,4.3178,4.312,4.312,4.3199,4.3199,4.3199,4.3199,4.3199,4.3199,4.356,4.3557,4.3533,4.3517,4.3493,4.3477,4.3463,4.3443,4.342,4.3397,4.3379,4.3352,4.3317,4.3288,4.3265,4.3253,4.3245,4.3262,4.3245,4.3191,4.3182,4.3173,4.3173,4.3261,4.3261,4.3304,4.3304,4.3304]}]]